This is the latest recevied weather packets stored in our database for station/object OE6JUE. If no packets are shown the sender has not sent any weather packets the latest 10 day(s).
| Time | Temp. | Humidity | Pressure | Rain* | Wind** | Luminosity | Snow |
|---|---|---|---|---|---|---|---|
| 1777879942 | 20° C | 43% | 1018.3 hPa | 0.25 mm | - | - | - |
| 1777879642 | 20° C | 45% | 1018.3 hPa | 0.25 mm | - | - | - |
| 1777879342 | 19.44° C | 45% | 1018.2 hPa | 0.25 mm | - | - | - |
| 1777879042 | 19.44° C | 47% | 1018.3 hPa | 0.25 mm | - | - | - |
| 1777878742 | 19.44° C | 47% | 1018.2 hPa | 0 mm | - | - | - |
| 1777878442 | 18.89° C | 48% | 1018.2 hPa | 0 mm | - | - | - |
| 1777878142 | 18.89° C | 47% | 1018.3 hPa | 0 mm | - | - | - |
| 1777877842 | 18.89° C | 45% | 1018.1 hPa | 0 mm | - | - | - |
| 1777877542 | 18.89° C | 47% | 1018.2 hPa | 0 mm | - | - | - |
| 1777877242 | 18.89° C | 47% | 1018.4 hPa | 0 mm | - | - | - |
| 1777876942 | 18.89° C | 48% | 1018.3 hPa | 0 mm | - | - | - |
| 1777876642 | 18.89° C | 48% | 1018.2 hPa | 0 mm | - | - | - |
| 1777876342 | 18.89° C | 47% | 1018.2 hPa | 0 mm | - | - | - |
| 1777876043 | 19.44° C | 48% | 1018.1 hPa | 0 mm | - | - | - |
| 1777875742 | 20° C | 50% | 1018.1 hPa | 0 mm | - | - | - |
| 1777875442 | 19.44° C | 52% | 1018.2 hPa | 0 mm | - | - | - |
| 1777875142 | 18.33° C | 53% | 1018.1 hPa | 0 mm | - | - | - |
| 1777874842 | 17.22° C | 63% | 1018.1 hPa | 0 mm | - | - | - |
| 1777874542 | 17.22° C | 63% | 1018.1 hPa | - | - | - | - |
| 1777874242 | 15° C | 67% | 1018.1 hPa | 0 mm | - | - | - |
| 1777873941 | 13.89° C | 67% | 1018 hPa | 0 mm | - | - | - |
| 1777873642 | 13.33° C | 65% | 1018.1 hPa | 0 mm | - | - | - |
| 1777873341 | 13.89° C | 66% | 1018 hPa | 0 mm | - | - | - |
| 1777873041 | 13.33° C | 66% | 1018 hPa | 0 mm | - | - | - |
| 1777872742 | 13.33° C | 65% | 1018.1 hPa | 0 mm | - | - | - |
* Rain latest hour (hover to see other rain measurements)
** Current wind speed in m/s (hover to see current wind gust speed)